カタログに戻る

CZ-4 DEB

運用中PO
NORAD 26152·DEBRIS·🇨🇳 China

打ち上げ Oct 14, 1999 から Taiyuan Satellite Launch Center

Loading…

次のパス (今後24時間)

TLE

最新Source: Space-Track

元期: Sep 13, 2026, 23:15 UTC

1 26152U 99057AN  26256.96937412  .00000413  00000-0  38081-3 0  9999
2 26152  99.1375 256.6738 0520503  89.4555 304.8791 13.38580080289984

AllMySatでCZ-4 DEBをリアルタイム追跡

Download on the App Store